Date String (YYYY-MM-DD hh:mm:ss) UTC,Instrument flags,Ambient pressure (hPa),Sample flow (lpm),Bypass flow (lpm),Sample temperature (°C),Ambient temperature (°C),ASC tube jacket temperature (°C),LED temperature (°C),Box temperature (°C),Sample RH (%),Span deviation,Mass concentration (μg/m³),Mass concentration (μg/m³),Mass concentration (μg/m³)
DateTimeUTC,F1_M11,P_M11,Q1_M11,Q2_M11,T1_M11,T2_M11,T3_M11,T4_M11,T5_M11,U1_M11,ZSPAN_M11,X0_M11,X2_M11,X1_M11
2022-09-16 11:00:00,,0826.7,5.01,0.00,30.3,28.7,00.0,39.1,32.1,23.5,0000.0,0008.95,0004.32,0003.80
2022-09-16 11:01:00,,0826.7,4.99,0.00,30.3,28.7,00.0,39.1,32.0,23.4,0000.0,0008.89,0004.28,0003.76
2022-09-16 11:02:00,,0826.7,5.01,0.00,30.3,28.7,00.0,39.1,32.0,23.2,0000.0,0008.96,0004.27,0003.73
2022-09-16 11:03:00,,0826.6,5.00,0.00,30.3,28.7,00.0,39.1,32.1,23.1,0000.0,0008.71,0004.23,0003.69
2022-09-16 11:04:00,,0826.7,5.00,0.00,30.3,28.7,00.0,39.1,32.1,23.2,0000.0,0008.13,0004.19,0003.66
2022-09-16 11:05:00,,0826.7,5.01,0.00,30.3,28.7,00.0,39.1,32.1,23.0,0000.0,0007.91,0004.17,0003.64
2022-09-16 11:06:00,,0826.6,4.99,0.00,30.3,28.7,00.0,39.1,32.1,22.9,0000.0,0007.84,0004.15,0003.63
2022-09-16 11:07:00,,0826.6,5.01,0.00,30.3,28.7,00.0,39.1,32.0,22.8,0000.0,0007.53,0004.08,0003.61
2022-09-16 11:08:00,,0826.7,4.99,0.00,30.3,28.7,00.0,39.1,32.0,22.8,0000.0,0007.35,0004.03,0003.58
2022-09-16 11:09:00,,0826.6,5.00,0.00,30.3,28.7,00.0,39.1,32.1,23.0,0000.0,0007.42,0004.03,0003.56
2022-09-16 11:10:00,,0826.6,5.01,0.00,30.3,28.7,00.0,39.1,32.1,22.9,0000.0,0007.31,0003.99,0003.55
2022-09-16 11:11:00,,0826.6,4.98,0.00,30.3,28.7,00.0,39.1,32.0,22.6,0000.0,0007.32,0003.98,0003.53
2022-09-16 11:12:00,,0826.7,5.01,0.00,30.3,28.7,00.0,39.1,32.0,22.4,0000.0,0007.38,0003.97,0003.52
2022-09-16 11:13:00,,0826.7,4.99,0.00,30.3,28.7,00.0,39.1,32.0,22.5,0000.0,0007.56,0003.94,0003.49
2022-09-16 11:14:00,,0826.7,5.02,0.00,30.3,28.7,00.0,39.1,32.0,22.5,0000.0,0007.59,0003.92,0003.48
2022-09-16 11:15:00,,0826.7,4.99,0.00,30.3,28.7,00.0,39.1,32.0,22.4,0000.0,0007.70,0003.94,0003.47
2022-09-16 11:16:00,,0826.7,4.99,0.00,30.3,28.7,00.0,39.1,32.1,22.3,0000.0,0007.51,0003.93,0003.46
2022-09-16 11:17:00,,0826.7,5.00,0.00,30.3,28.7,00.0,39.1,32.0,22.2,0000.0,0007.54,0003.92,0003.44
2022-09-16 11:18:00,,0826.6,4.99,0.00,30.3,28.7,00.0,39.1,32.1,22.2,0000.0,0007.52,0003.90,0003.42
2022-09-16 11:19:00,,0826.6,5.01,0.00,30.3,28.7,00.0,39.1,32.0,22.3,0000.0,0007.44,0003.86,0003.40
2022-09-16 11:20:00,,0826.6,5.00,0.00,30.3,28.7,00.0,39.1,32.0,22.2,0000.0,0007.26,0003.81,0003.37
2022-09-16 11:21:00,,0826.5,5.00,0.00,30.3,28.7,00.0,39.1,32.0,22.2,0000.0,0007.29,0003.80,0003.35
2022-09-16 11:22:00,,0826.5,5.01,0.00,30.3,28.7,00.0,39.1,32.0,22.1,0000.0,0007.12,0003.76,0003.32
2022-09-16 11:23:00,,0826.5,4.99,0.00,30.3,28.7,00.0,39.1,32.0,22.2,0000.0,0007.04,0003.73,0003.32
2022-09-16 11:24:00,,0826.5,5.01,0.00,30.3,28.6,00.0,39.1,32.0,22.2,0000.0,0007.34,0003.71,0003.31
2022-09-16 11:25:00,,0826.5,5.00,0.00,30.3,28.6,00.0,39.1,32.0,22.1,0000.0,0007.17,0003.69,0003.31
2022-09-16 11:26:00,,0826.5,4.99,0.00,30.3,28.7,00.0,39.1,32.0,22.0,0000.0,0007.07,0003.67,0003.31
2022-09-16 11:27:00,,0826.6,5.01,0.00,30.3,28.7,00.0,39.1,32.0,21.9,0000.0,0006.90,0003.65,0003.30
2022-09-16 11:28:00,,0826.6,4.99,0.00,30.3,28.7,00.0,39.1,32.0,21.8,0000.0,0006.86,0003.65,0003.30
2022-09-16 11:29:00,,0826.5,5.00,0.00,30.3,28.7,00.0,39.1,32.0,21.7,0000.0,0006.87,0003.63,0003.29
2022-09-16 11:30:00,,0826.6,5.00,0.00,30.3,28.7,00.0,39.1,32.0,21.7,0000.0,0006.84,0003.64,0003.29
2022-09-16 11:31:00,,0826.7,5.00,0.00,30.3,28.7,00.0,39.1,32.0,21.7,0000.0,0006.87,0003.65,0003.29
2022-09-16 11:32:00,,0826.7,5.00,0.00,30.3,28.6,00.0,39.1,32.0,21.7,0000.0,0006.80,0003.63,0003.27
2022-09-16 11:33:00,,0826.6,4.99,0.00,30.3,28.6,00.0,39.1,32.0,21.6,0000.0,0006.91,0003.64,0003.27
2022-09-16 11:34:00,,0826.6,5.01,0.00,30.3,28.6,00.0,39.1,32.0,21.6,0000.0,0006.81,0003.62,0003.26
2022-09-16 11:35:00,,0826.6,4.99,0.00,30.3,28.6,00.0,39.1,32.0,21.6,0000.0,0005.78,0003.61,0003.25
2022-09-16 11:36:00,,0826.6,5.01,0.00,30.3,28.6,00.0,39.1,32.0,21.6,0000.0,0005.72,0003.61,0003.25
2022-09-16 11:37:00,,0826.7,4.99,0.00,30.3,28.6,00.0,39.1,32.0,21.5,0000.0,0005.74,0003.60,0003.24
2022-09-16 11:38:00,,0826.7,5.00,0.00,30.3,28.6,00.0,39.1,32.0,21.5,0000.0,0005.59,0003.58,0003.24
2022-09-16 11:39:00,,0826.6,4.99,0.00,30.2,28.6,00.0,39.1,32.0,21.6,0000.0,0005.80,0003.60,0003.25
2022-09-16 11:40:00,,0826.6,5.00,0.00,30.2,28.6,00.0,39.0,32.0,21.7,0000.0,0005.82,0003.62,0003.26
2022-09-16 11:41:00,,0826.7,5.00,0.00,30.2,28.6,00.0,39.0,32.0,21.7,0000.0,0005.95,0003.64,0003.27
2022-09-16 11:42:00,,0826.6,5.00,0.00,30.2,28.6,00.0,39.0,32.0,21.8,0000.0,0006.04,0003.65,0003.27
2022-09-16 11:43:00,,0826.6,5.01,0.00,30.2,28.6,00.0,39.0,32.0,21.9,0000.0,0006.13,0003.66,0003.28
2022-09-16 11:44:00,,0826.6,4.99,0.00,30.2,28.6,00.0,39.0,32.0,21.7,0000.0,0005.96,0003.65,0003.30
2022-09-16 11:45:00,,0826.6,5.01,0.00,30.2,28.6,00.0,39.0,32.0,21.7,0000.0,0006.03,0003.66,0003.31
2022-09-16 11:46:00,,0826.6,4.99,0.00,30.2,28.6,00.0,39.0,32.0,21.7,0000.0,0006.59,0003.67,0003.31
2022-09-16 11:47:00,,0826.6,5.01,0.00,30.2,28.6,00.0,39.0,32.0,21.7,0000.0,0007.60,0003.65,0003.32
2022-09-16 11:48:00,,0826.5,4.99,0.00,30.2,28.6,00.0,39.0,32.0,21.7,0000.0,0007.52,0003.65,0003.32
2022-09-16 11:49:00,,0826.5,5.00,0.00,30.2,28.6,00.0,39.0,32.0,22.0,0000.0,0007.48,0003.65,0003.32
2022-09-16 11:50:00,,0826.6,5.01,0.00,30.2,28.6,00.0,39.0,32.0,22.1,0000.0,0007.52,0003.66,0003.33
2022-09-16 11:51:00,,0826.6,4.99,0.00,30.2,28.6,00.0,39.0,32.0,21.9,0000.0,0007.61,0003.69,0003.34
2022-09-16 11:52:00,,0826.7,5.01,0.00,30.2,28.6,00.0,39.0,31.9,21.9,0000.0,0008.02,0003.67,0003.34
2022-09-16 11:53:00,,0826.7,5.00,0.00,30.2,28.6,00.0,39.0,32.0,22.0,0000.0,0007.98,0003.66,0003.35
2022-09-16 11:54:00,,0826.7,5.00,0.00,30.2,28.6,00.0,39.0,31.9,22.0,0000.0,0007.90,0003.66,0003.36
2022-09-16 11:55:00,,0826.7,4.99,0.00,30.2,28.6,00.0,39.0,32.0,21.8,0000.0,0007.98,0003.70,0003.36
2022-09-16 11:56:00,,0826.7,5.01,0.00,30.2,28.6,00.0,39.0,32.0,21.6,0000.0,0008.05,0003.73,0003.36
2022-09-16 11:57:00,,0826.7,5.00,0.00,30.2,28.6,00.0,39.0,31.9,21.5,0000.0,0007.73,0003.74,0003.36
2022-09-16 11:58:00,,0826.7,4.99,0.00,30.2,28.6,00.0,39.0,31.9,21.5,0000.0,0007.09,0003.75,0003.35
2022-09-16 11:59:00,,0826.7,5.01,0.00,30.2,28.6,00.0,39.0,31.9,21.4,0000.0,0007.19,0003.77,0003.35
